This is the latest recevied weather packets stored in our database for station/object KC8BSD. If no packets are shown the sender has not sent any weather packets the latest 10 day(s).
| Time | Temp. | Humidity | Pressure | Rain* | Wind** | Luminosity | Snow |
|---|---|---|---|---|---|---|---|
| 1777988390 | 13.89° C | 60% | 1006.9 hPa | 0 mm | - | 167 W/m² | - |
| 1777988088 | 14.44° C | 60% | 1006.7 hPa | 0 mm | - | 166 W/m² | - |
| 1777987783 | 14.44° C | 59% | 1006.4 hPa | 0 mm | - | 196 W/m² | - |
| 1777987480 | 14.44° C | 59% | 1006.5 hPa | 0 mm | - | 277 W/m² | - |
| 1777987178 | 13.89° C | 60% | 1006 hPa | 0 mm | - | 198 W/m² | - |
| 1777986874 | 14.44° C | 58% | 1005.8 hPa | 0 mm | - | 123 W/m² | - |
| 1777986572 | 15° C | 57% | 1006.1 hPa | 0 mm | - | 140 W/m² | - |
| 1777986270 | 15.56° C | 57% | 1006 hPa | 0 mm | - | 137 W/m² | - |
| 1777985967 | 15° C | 57% | 1005.7 hPa | 0 mm | - | 317 W/m² | - |
| 1777985665 | 15° C | 57% | 1005.5 hPa | 0 mm | - | 265 W/m² | - |
| 1777985361 | 15° C | 59% | 1005.2 hPa | 0 mm | - | 307 W/m² | - |
| 1777985058 | 15° C | 58% | 1005.1 hPa | 0 mm | - | 264 W/m² | - |
| 1777984754 | 15° C | 60% | 1005.3 hPa | 0 mm | - | 230 W/m² | - |
| 1777984451 | 15° C | 61% | 1005.5 hPa | 0 mm | - | 210 W/m² | - |
| 1777984146 | 15° C | 63% | 1005 hPa | 0 mm | - | 200 W/m² | - |
| 1777983844 | 14.44° C | 65% | 1005 hPa | 0 mm | - | 170 W/m² | - |
| 1777983541 | 15° C | 67% | 1005.1 hPa | 0 mm | - | 134 W/m² | - |
| 1777983238 | 15° C | 69% | 1005.3 hPa | 0 mm | - | 145 W/m² | - |
| 1777982933 | 14.44° C | 70% | 1005.1 hPa | 0 mm | - | 139 W/m² | - |
| 1777982630 | 13.89° C | 72% | 1005.2 hPa | 0 mm | - | 119 W/m² | - |
| 1777982329 | 13.89° C | 76% | 1005 hPa | 0 mm | - | 110 W/m² | - |
| 1777982026 | 13.89° C | 77% | 1005.2 hPa | 0 mm | - | 96 W/m² | - |
| 1777981724 | 13.33° C | 79% | 1005 hPa | 0 mm | - | 84 W/m² | - |
| 1777981420 | 13.33° C | 82% | 1005 hPa | 0 mm | - | 91 W/m² | - |
| 1777981116 | 12.78° C | 84% | 1004.9 hPa | 0 mm | - | 78 W/m² | - |
* Rain latest hour (hover to see other rain measurements)
** Current wind speed in m/s (hover to see current wind gust speed)